This is the latest recevied weather packets stored in our database for station/object WC4PEM-12. If no packets are shown the sender has not sent any weather packets the latest 10 day(s).
| Time | Temp. | Humidity | Pressure | Rain* | Wind** | Luminosity | Snow |
|---|---|---|---|---|---|---|---|
| 1777851781 | 22.78° C | 75% | 1015.6 hPa | 0 mm | - | - | - |
| 1777851480 | 22.78° C | 75% | 1015.6 hPa | 0 mm | - | - | - |
| 1777851180 | 22.78° C | 75% | 1015.4 hPa | 0 mm | - | - | - |
| 1777850881 | 22.78° C | 74% | 1015.2 hPa | 0 mm | - | - | - |
| 1777850581 | 22.78° C | 74% | 1015.2 hPa | 0 mm | - | - | - |
| 1777850498 | 22.78° C | 74% | 1015.1 hPa | 0 mm | - | - | - |
| 1777850281 | 22.78° C | 74% | 1015.1 hPa | 0 mm | - | - | - |
| 1777849981 | 23.33° C | 73% | 1015.2 hPa | 0 mm | - | - | - |
| 1777849681 | 23.33° C | 74% | 1015.2 hPa | 0 mm | - | - | - |
| 1777849440 | 23.33° C | 74% | 1015.3 hPa | 0 mm | - | - | - |
| 1777849381 | 23.33° C | 74% | 1015.3 hPa | 0 mm | - | - | - |
| 1777849081 | 23.33° C | 74% | 1015.2 hPa | 0 mm | - | - | - |
| 1777848838 | 23.33° C | 73% | 1015.2 hPa | 0 mm | - | - | - |
| 1777848781 | 23.33° C | 73% | 1015.2 hPa | 0 mm | - | - | - |
| 1777848481 | 23.33° C | 72% | 1015.2 hPa | 0 mm | - | - | - |
| 1777848221 | 23.89° C | 71% | 1015.2 hPa | 0 mm | - | - | - |
| 1777848181 | 23.89° C | 72% | 1015.2 hPa | 0 mm | - | - | - |
| 1777847881 | 23.89° C | 71% | 1015.2 hPa | 0 mm | - | - | - |
| 1777847581 | 24.44° C | 71% | 1015.3 hPa | 0 mm | - | - | - |
| 1777847281 | 24.44° C | 71% | 1015.3 hPa | 0 mm | - | - | - |
| 1777846981 | 24.44° C | 70% | 1015.2 hPa | 0 mm | - | - | - |
| 1777846681 | 25° C | 69% | 1015.2 hPa | 0 mm | - | - | - |
| 1777846399 | 26.11° C | 66% | 1015.2 hPa | 0 mm | - | - | - |
| 1777846381 | 25° C | 68% | 1015.1 hPa | 0 mm | - | - | - |
| 1777846081 | 25.56° C | 68% | 1015.1 hPa | 0 mm | - | - | - |
* Rain latest hour (hover to see other rain measurements)
** Current wind speed in m/s (hover to see current wind gust speed)